Weather History for Olympia, WA

Change the Weather History Date:

Friday, February 8, 2013

  Actual Average Record
Temperature  
Mean Temperature 36 °F 41 °F  
Max Temperature 46 °F 49 °F 69 °F (1963)
Min Temperature 26 °F 33 °F 9 °F (1989)
Degree Days  
Heating Degree Days 29 24  
Month to date heating degree days 184 193  
Since 1 July heating degree days 3222 3244  
Cooling Degree Days 0 0  
Month to date cooling degree days 0 0  
Year to date cooling degree days 0 0  
Moisture  
Dew Point 30 °F    
Average Humidity 83    
Maximum Humidity 100    
Minimum Humidity 65    
Precipitation  
Precipitation T in 0.20 in 2.75 in (1996)
Month to date precipitation 0.55 1.63  
Year to date precipitation 4.46 9.47  
Sea Level Pressure  
Sea Level Pressure 30.26 in    
Wind  
Wind Speed 3 mph (North)    
Max Wind Speed 9 mph    
Max Gust Speed 10 mph    
Visibility 6 miles    
Events Fog    
T = Trace of Precipitation, MM = Missing Value Source: NWS Daily Summary

Daily Weather History Graph

Daily Weather History Graph

Search for Another Location

Airport:

Trip Planner

Search our weather history database for the weather conditions in past years. The results will help you decide how hot, cold, wet, or windy it might be!

Date:

Astronomy

Feb. 08, 2013 Rise Set
Actual Time 7:26 AM PST 5:25 PM PST
Civil Twilight 6:54 AM PST 5:57 PM PST
Nautical Twilight 6:18 AM PST 6:33 PM PST
Astronomical Twilight 5:43 AM PST 7:09 PM PST
Moon 6:02 AM PST (2/8) 4:04 PM PST (2/8)
Length of Visible Light 11h 03m
Length of Day
9h 59m
Waning Crescent, 3% of the Moon is Illuminated
Feb 8
Waning Crescent
Feb 9
New
Feb 17
First Quarter
Feb 25
Full
Mar 4
Last Quarter

Hourly Weather History & Observations

Time (PST) Temp. Windchill Dew Point Humidity Pressure Visibility Wind Dir Wind Speed Gust Speed Precip Events Conditions
12:03 AM 28.0 °F - 27.0 °F 96% 30.19 in 1.8 mi Calm Calm - N/A   Clear
12:11 AM 27.0 °F - 26.1 °F 96% 30.19 in 1.0 mi Calm Calm - N/A   Mist
12:20 AM 26.1 °F - 24.1 °F 92% 30.20 in 0.8 mi Calm Calm - N/A   Mist
12:38 AM 27.0 °F - 26.1 °F 96% 30.20 in 1.5 mi Calm Calm - N/A   Partly Cloudy
12:40 AM 27.0 °F - 26.1 °F 96% 30.20 in 3.0 mi Calm Calm - N/A   Partly Cloudy
12:48 AM 26.6 °F - 26.6 °F 100% 30.20 in 1.8 mi Calm Calm - N/A   Clear
12:50 AM 26.6 °F - 26.6 °F 100% 30.20 in 1.0 mi Calm Calm - N/A   Mist
12:54 AM 26.1 °F - 26.1 °F 100% 30.21 in 0.5 mi Calm Calm - N/A Fog Light Freezing Fog
1:07 AM 27.0 °F - 25.0 °F 92% 30.20 in 1.2 mi Calm Calm - N/A   Partly Cloudy
1:14 AM 28.0 °F - 26.1 °F 92% 30.20 in 2.0 mi Calm Calm - N/A   Scattered Clouds
1:18 AM 28.4 °F - 26.6 °F 93% 30.21 in 1.2 mi Calm Calm - N/A   Scattered Clouds
1:27 AM 27.0 °F - 26.1 °F 96% 30.21 in 1.2 mi Calm Calm - N/A   Mostly Cloudy
1:34 AM 27.0 °F - 26.1 °F 96% 30.21 in 0.2 mi Calm Calm - N/A Fog Light Freezing Fog
1:45 AM 26.1 °F - 26.1 °F 100% 30.21 in 0.8 mi Calm Calm - N/A   Mist
1:54 AM 26.1 °F - 24.1 °F 92% 30.22 in 0.8 mi Calm Calm - N/A   Mist
2:17 AM 27.0 °F - 26.1 °F 96% 30.22 in 1.2 mi Calm Calm - N/A   Scattered Clouds
2:19 AM 27.0 °F - 26.1 °F 96% 30.22 in 2.5 mi Calm Calm - N/A   Scattered Clouds
2:25 AM 28.4 °F - 26.6 °F 93% 30.22 in 4.0 mi Calm Calm - N/A   Mostly Cloudy
2:54 AM 28.0 °F - 27.0 °F 96% 30.23 in 5.0 mi Calm Calm - N/A   Mostly Cloudy
3:39 AM 28.0 °F - 26.1 °F 92% 30.23 in 6.0 mi Calm Calm - N/A   Scattered Clouds
3:54 AM 27.0 °F 23.0 °F 26.1 °F 96% 30.24 in 5.0 mi SSE 3.5 mph - N/A   Clear
4:07 AM 27.0 °F 23.0 °F 26.1 °F 96% 30.24 in 1.8 mi Variable 3.5 mph - N/A   Partly Cloudy
4:12 AM 28.0 °F 24.2 °F 27.0 °F 96% 30.24 in 2.5 mi Variable 3.5 mph - N/A   Mostly Cloudy
4:19 AM 28.9 °F - 28.0 °F 96% 30.24 in 6.0 mi Calm Calm - N/A   Mostly Cloudy
4:54 AM 30.0 °F - 30.0 °F 100% 30.26 in 7.0 mi Calm Calm - N/A   Overcast
5:31 AM 30.0 °F 26.5 °F 28.9 °F 96% 30.25 in 8.0 mi SSE 3.5 mph - N/A   Overcast
5:54 AM 30.9 °F - 28.9 °F 92% 30.27 in 9.0 mi Calm Calm - N/A   Overcast
6:32 AM 28.0 °F - 27.0 °F 96% 30.27 in 7.0 mi Calm Calm - N/A   Scattered Clouds
6:54 AM 28.9 °F 23.9 °F 27.0 °F 92% 30.27 in 7.0 mi ESE 4.6 mph - N/A   Mostly Cloudy
7:37 AM 28.9 °F - 28.0 °F 96% 30.28 in 5.0 mi Calm Calm - N/A   Mostly Cloudy
7:50 AM 30.2 °F - 28.4 °F 93% 30.29 in 6.0 mi Calm Calm - N/A   Overcast
7:54 AM 30.0 °F - 28.9 °F 96% 30.30 in 6.0 mi Calm Calm - N/A   Overcast
8:34 AM 30.9 °F - 30.0 °F 96% 30.29 in 6.0 mi Calm Calm - 0.00 in   Light Freezing Drizzle
8:46 AM 30.9 °F - 30.9 °F 100% 30.29 in 6.0 mi Calm Calm - 0.00 in   Light Freezing Drizzle
8:54 AM 32.0 °F - 30.9 °F 96% 30.30 in 6.0 mi Calm Calm - 0.00 in   Light Freezing Drizzle
8:58 AM 32.0 °F - 30.9 °F 96% 30.30 in 6.0 mi Calm Calm - 0.00 in   Overcast
9:11 AM 33.8 °F - 33.8 °F 100% 30.30 in 6.0 mi Calm Calm - N/A   Overcast
9:54 AM 36.0 °F - 35.1 °F 97% 30.32 in 7.0 mi Calm Calm - 0.00 in   Overcast
10:54 AM 39.9 °F 36.7 °F 36.0 °F 86% 30.32 in 8.0 mi ENE 4.6 mph - N/A   Mostly Cloudy
11:54 AM 44.1 °F 40.8 °F 37.0 °F 76% 30.31 in 10.0 mi NE 5.8 mph - N/A   Mostly Cloudy
12:54 PM 44.1 °F 40.8 °F 36.0 °F 73% 30.30 in 10.0 mi North 5.8 mph - N/A   Mostly Cloudy
1:54 PM 44.1 °F 40.1 °F 35.1 °F 71% 30.30 in 10.0 mi NNW 6.9 mph - N/A   Mostly Cloudy
2:54 PM 45.0 °F 41.8 °F 35.1 °F 68% 30.29 in 10.0 mi NW 5.8 mph - N/A   Overcast
3:54 PM 45.0 °F 41.2 °F 33.1 °F 63% 30.29 in 10.0 mi North 6.9 mph - N/A   Overcast
4:54 PM 44.1 °F 41.5 °F 35.1 °F 71% 30.29 in 10.0 mi North 4.6 mph - N/A   Overcast
5:54 PM 42.1 °F - 34.0 °F 73% 30.29 in 10.0 mi Calm Calm - N/A   Overcast
6:54 PM 37.9 °F - 34.0 °F 86% 30.29 in 10.0 mi Calm Calm - N/A   Overcast
7:54 PM 39.0 °F - 35.1 °F 86% 30.30 in 10.0 mi Calm Calm - N/A   Overcast
8:54 PM 36.0 °F 33.3 °F 34.0 °F 93% 30.30 in 10.0 mi WNW 3.5 mph - N/A   Scattered Clouds
9:54 PM 36.0 °F 33.3 °F 34.0 °F 93% 30.30 in 10.0 mi West 3.5 mph - N/A   Mostly Cloudy
10:54 PM 35.1 °F 32.2 °F 34.0 °F 96% 30.30 in 7.0 mi SE 3.5 mph - N/A   Partly Cloudy
11:54 PM 32.0 °F 28.7 °F 32.0 °F 100% 30.29 in 7.0 mi West 3.5 mph - N/A   Clear